Terug naar catalogus

SL-8 DEB

ActiefLEO
NORAD 21943·DEBRIS·🇷🇺 Russia

Gelanceerd Feb 12, 1991 vanaf Plesetsk Cosmodrome

Loading…

Volgende Passages (komende 24 uur)

TLE

VersSource: Space-Track

Epoch: Sep 14, 2026, 07:51 UTC

1 21943U 91009CE  26257.32744311 -.00000020  00000-0 -44372-4 0  9993
2 21943  73.9576  15.6000 0137580 306.4553  80.6883 12.19268820580881

Volg SL-8 DEB in realtime met AllMySat

Download on the App Store